Marshfield, WI

9:20 AM CDT on May 29, 2017 (GMT -0500)
Marshfield Municipal

Weather History for KMFI - October, 2011

Change the Weather History Date:

Tuesday, October 25, 2011

  Actual Average Record
Temperature  
Mean Temperature 44 °F -  
Max Temperature 48 °F 55 °F 79 °F (1989)
Min Temperature 39 °F 34 °F 16 °F (1933)
Degree Days  
Heating Degree Days 22    
Moisture  
Dew Point 38 °F    
Average Humidity 82    
Maximum Humidity 92    
Minimum Humidity 66    
Precipitation  
Precipitation 0.05 in - - ()
Sea Level Pressure  
Sea Level Pressure 29.95 in    
Wind  
Wind Speed 12 mph (ENE)    
Max Wind Speed 21 mph    
Max Gust Speed 32 mph    
Visibility 8 miles    
Events Rain , Thunderstorm    
Averages and records for this station are not official NWS values.
T = Trace of Precipitation, MM = Missing Value Source: NWS Daily Summary

Daily Weather History Graph

Daily Weather History Graph

Search for Another Location

Airport or City:

Trip Planner

Search our weather history database for the weather conditions in past years. The results will help you decide how hot, cold, wet, or windy it might be!

Date:

Astronomy

Oct. 25, 2011 Rise Set
Actual Time 7:28 AM CDT 6:00 PM CDT
Civil Twilight 6:58 AM CDT 6:30 PM CDT
Nautical Twilight 6:24 AM CDT 7:04 PM CDT
Astronomical Twilight 5:50 AM CDT 7:37 PM CDT
Moon 5:59 AM CDT (10/25) 5:01 PM CDT (10/25)
Length of Visible Light 11h 31m
Length of Day
10h 31m
Waning Crescent, 2% of the Moon is Illuminated
Oct 25
Waning Crescent
Oct 26
New
Nov 2
First Quarter
Nov 10
Full
Nov 18
Last Quarter

Hourly Weather History & Observations

Time (CDT) Temp. Windchill Dew Point Humidity Pressure Visibility Wind Dir Wind Speed Gust Speed Precip Events Conditions
12:54 AM 48.0 °F - 39.0 °F 71% 30.05 in 10.0 mi ENE 5.8 mph - N/A   Overcast
1:54 AM 48.0 °F - 37.9 °F 68% 30.04 in 10.0 mi ENE 9.2 mph - N/A   Overcast
2:54 AM 48.0 °F - 37.9 °F 68% 30.03 in 10.0 mi ENE 10.4 mph - N/A   Overcast
3:54 AM 48.0 °F - 37.0 °F 66% 30.01 in 10.0 mi East 9.2 mph - 0.00 in   Overcast
4:34 AM 46.4 °F 40.4 °F 37.4 °F 71% 29.99 in 10.0 mi East 13.8 mph - 0.00 in Rain , Thunderstorm Light Rain
4:49 AM 44.6 °F 38.4 °F 37.4 °F 76% 29.99 in 6.0 mi East 12.7 mph - 0.02 in Rain Rain
4:54 AM 45.0 °F 38.5 °F 37.9 °F 76% 30.00 in 6.0 mi East 13.8 mph - 0.02 in Rain Rain
5:54 AM 44.1 °F 36.8 °F 39.0 °F 82% 29.99 in 10.0 mi East 16.1 mph - 0.02 in   Overcast
6:54 AM 44.1 °F 37.7 °F 37.0 °F 76% 29.97 in 10.0 mi East 12.7 mph 21.9 mph N/A   Overcast
7:54 AM - - - N/A% 29.95 in - North - - N/A   Unknown
8:54 AM 44.1 °F 37.4 °F 37.9 °F 79% 29.97 in 10.0 mi East 13.8 mph - N/A   Overcast
9:52 AM 44.6 °F 38.1 °F 39.2 °F 81% 29.93 in 10.0 mi East 13.8 mph - N/A   Overcast
9:54 AM 44.1 °F 38.1 °F 39.9 °F 85% 29.96 in 10.0 mi East 11.5 mph - N/A   Overcast
10:54 AM 44.1 °F 36.8 °F 39.0 °F 82% 29.96 in 10.0 mi East 16.1 mph 23.0 mph N/A   Overcast
11:54 AM 45.0 °F 37.9 °F 39.0 °F 80% 29.93 in 10.0 mi ENE 16.1 mph 20.7 mph N/A   Overcast
12:54 PM 44.1 °F 35.7 °F 39.0 °F 82% 29.91 in 10.0 mi East 20.7 mph 31.1 mph N/A   Overcast
1:54 PM 44.1 °F 36.2 °F 39.0 °F 82% 29.89 in 10.0 mi ENE 18.4 mph 25.3 mph N/A   Overcast
2:54 PM 44.1 °F 37.1 °F 39.0 °F 82% 29.89 in 10.0 mi East 15.0 mph 20.7 mph N/A   Overcast
3:46 PM 42.8 °F 36.2 °F 39.2 °F 87% 29.88 in 2.5 mi ENE 12.7 mph - 0.00 in Rain Light Rain
3:54 PM 42.1 °F 35.2 °F 39.9 °F 92% 29.90 in 2.0 mi ENE 12.7 mph - 0.00 in Rain Light Rain
4:10 PM 42.8 °F 35.8 °F 39.2 °F 87% 29.88 in 1.8 mi ENE 13.8 mph - 0.00 in Rain Light Rain
4:25 PM 42.8 °F 35.8 °F 39.2 °F 87% 29.89 in 2.0 mi ENE 13.8 mph - 0.00 in   Overcast
4:54 PM 42.1 °F 35.7 °F 39.9 °F 92% 29.93 in 1.8 mi ENE 11.5 mph - 0.00 in   Overcast
5:39 PM 42.8 °F 35.4 °F 39.2 °F 87% 29.91 in 2.5 mi NE 15.0 mph 21.9 mph 0.00 in Rain Light Rain
5:52 PM 42.8 °F 35.4 °F 39.2 °F 87% 29.91 in 3.0 mi NE 15.0 mph 24.2 mph 0.01 in Rain Light Rain
6:16 PM 42.8 °F 34.8 °F 39.2 °F 87% 29.89 in 3.0 mi ENE 17.3 mph 24.2 mph 0.01 in Rain Light Rain
6:54 PM 42.1 °F 35.2 °F 39.0 °F 89% 29.93 in 8.0 mi NE 12.7 mph 21.9 mph 0.01 in   Overcast
8:09 PM 42.8 °F 35.8 °F 39.2 °F 87% 29.93 in 10.0 mi NNE 13.8 mph 20.7 mph N/A   Overcast
8:54 PM 39.9 °F 30.8 °F 35.1 °F 83% 29.96 in 10.0 mi NNE 18.4 mph 32.2 mph 0.00 in Rain Light Rain
9:16 PM 39.2 °F 29.8 °F 33.8 °F 81% 29.93 in 10.0 mi NE 18.4 mph 25.3 mph 0.00 in   Overcast
9:54 PM 39.0 °F 31.4 °F 35.1 °F 86% 29.96 in 10.0 mi NE 12.7 mph 23.0 mph 0.00 in   Overcast
10:50 PM 39.2 °F 32.5 °F 35.6 °F 87% 29.94 in 10.0 mi NE 10.4 mph - N/A   Overcast
11:05 PM 39.2 °F 33.0 °F 35.6 °F 87% 29.94 in 10.0 mi NE 9.2 mph - N/A   Overcast
11:22 PM 39.2 °F 33.0 °F 35.6 °F 87% 29.95 in 10.0 mi NE 9.2 mph - N/A   Overcast
11:54 PM 39.0 °F 32.8 °F 35.1 °F 86% 29.99 in 10.0 mi NE 9.2 mph - N/A   Overcast